When you browse on this site, cookies collect data to enhance your experience and personalize the content and advertising you see.
Visit our Privacy Policy to learn more. By continuing to use the site, you agree to this use of cookies and data.
  • In United Kingdom
  • List of Countries
  • For 7 days
  • Water Temperature
  • Satellite Maps
  • Weather Map
  • Weather Widgets
  • user-avatar
    Login

    Hourly Weather Tasmachi

    Today, 23 April, Tuesday

    Time Temperature Precipitation Wind Pressure Humidity
    00:00 +13°C° 0 mm 2 mps 721 mmHg 56%
    01:00 +13°C° 0 mm 2 mps 721 mmHg 56%
    02:00 +13°C° 0 mm 2 mps 721 mmHg 56%
    03:00 +13°C° 0 mm 2 mps 720 mmHg 56%
    04:00 +14°C° 0 mm 2 mps 720 mmHg 56%
    05:00 +14°C° 0 mm 3 mps 720 mmHg 56%
    06:00 +14°C° 0 mm 3 mps 720 mmHg 57%
    07:00 +16°C° 0 mm 3 mps 720 mmHg 57%
    08:00 +18°C° 0 mm 3 mps 720 mmHg 53%
    09:00 +20°C° 0 mm 3 mps 720 mmHg 50%
    10:00 +21°C° 0 mm 3 mps 721 mmHg 49%
    11:00 +21°C° 0 mm 3 mps 721 mmHg 48%
    12:00 +23°C° 0 mm 2 mps 721 mmHg 47%
    13:00 +23°C° 0 mm 2 mps 720 mmHg 46%
    14:00 +24°C° 0 mm 2 mps 720 mmHg 45%
    15:00 +24°C° 0 mm 3 mps 720 mmHg 44%
    16:00 +25°C° 0 mm 3 mps 720 mmHg 43%
    17:00 +23°C° 0.3 mm 2 mps 720 mmHg 50%
    18:00 +21°C° 0.3 mm 2 mps 720 mmHg 56%
    19:00 +19°C° 0.3 mm 2 mps 719 mmHg 63%
    20:00 +19°C° 1.5 mm 2 mps 720 mmHg 68%
    21:00 +18°C° 1.5 mm 2 mps 720 mmHg 74%
    22:00 +17°C° 1.5 mm 2 mps 720 mmHg 80%
    23:00 +17°C° 4 mm 2 mps 720 mmHg 82%

    Tomorrow, 24 April, Wednesday

    Time Temperature Precipitation Wind Pressure Humidity
    00:00 +16°C° 4 mm 2 mps 720 mmHg 85%
    01:00 +14°C° 4 mm 3 mps 720 mmHg 88%
    02:00 +14°C° 1.5 mm 3 mps 720 mmHg 88%
    03:00 +13°C° 1.5 mm 3 mps 720 mmHg 88%
    04:00 +13°C° 1.5 mm 3 mps 720 mmHg 88%
    05:00 +12°C° 2.5 mm 4 mps 721 mmHg 84%
    06:00 +10°C° 2.5 mm 5 mps 721 mmHg 81%
    07:00 +10°C° 2.5 mm 5 mps 722 mmHg 77%
    08:00 +10°C° 0.4 mm 5 mps 723 mmHg 76%
    09:00 +10°C° 0.4 mm 5 mps 723 mmHg 75%
    10:00 +10°C° 0.4 mm 5 mps 724 mmHg 75%
    11:00 +12°C° 0.3 mm 5 mps 724 mmHg 72%
    12:00 +12°C° 0.3 mm 5 mps 725 mmHg 70%
    13:00 +12°C° 0.3 mm 5 mps 725 mmHg 67%
    14:00 +12°C° 0.1 mm 5 mps 725 mmHg 66%
    15:00 +13°C° 0.1 mm 5 mps 725 mmHg 64%
    16:00 +13°C° 0.1 mm 5 mps 726 mmHg 63%
    17:00 +12°C° 0 mm 4 mps 726 mmHg 65%
    18:00 +12°C° 0 mm 3 mps 727 mmHg 66%
    19:00 +12°C° 0 mm 2 mps 727 mmHg 68%
    20:00 +12°C° 0 mm 2 mps 727 mmHg 70%
    21:00 +10°C° 0 mm 2 mps 728 mmHg 71%
    22:00 +10°C° 0 mm 2 mps 728 mmHg 73%
    23:00 +9°C° 0 mm 2 mps 728 mmHg 75%

    Day after tomorrow, 25 April, Thursday

    Time Temperature Precipitation Wind Pressure Humidity
    00:00 +9°C° 0 mm 2 mps 728 mmHg 77%
    01:00 +10°C° 0 mm 1 mps 728 mmHg 78%
    02:00 +9°C° 0 mm 1 mps 728 mmHg 79%
    03:00 +9°C° 0 mm 1 mps 728 mmHg 80%
    04:00 +8°C° 0 mm 0 mps 728 mmHg 81%
    05:00 +10°C° 0 mm 1 mps 728 mmHg 75%
    06:00 +11°C° 0 mm 1 mps 729 mmHg 69%
    07:00 +12°C° 0 mm 1 mps 729 mmHg 63%
    08:00 +13°C° 0.1 mm 1 mps 729 mmHg 58%
    09:00 +14°C° 0.1 mm 1 mps 729 mmHg 52%
    10:00 +15°C° 0.1 mm 1 mps 729 mmHg 46%
    11:00 +15°C° 0 mm 2 mps 729 mmHg 45%
    12:00 +16°C° 0 mm 3 mps 729 mmHg 43%
    13:00 +15°C° 0 mm 4 mps 729 mmHg 42%
    14:00 +15°C° 0 mm 4 mps 729 mmHg 40%
    15:00 +15°C° 0 mm 4 mps 729 mmHg 39%
    16:00 +15°C° 0 mm 4 mps 729 mmHg 38%
    17:00 +14°C° 0 mm 3 mps 729 mmHg 41%
    18:00 +14°C° 0 mm 2 mps 729 mmHg 44%
    19:00 +13°C° 0 mm 1 mps 729 mmHg 47%
    20:00 +12°C° 0 mm 1 mps 729 mmHg 48%
    21:00 +12°C° 0 mm 1 mps 729 mmHg 50%
    22:00 +11°C° 0 mm 1 mps 729 mmHg 51%
    23:00 +11°C° 0 mm 1 mps 729 mmHg 51%

    26 April, Friday

    Time Temperature Precipitation Wind Pressure Humidity
    00:00 +10°C° 0 mm 1 mps 729 mmHg 52%
    01:00 +10°C° 0 mm 1 mps 729 mmHg 52%
    02:00 +10°C° 0 mm 1 mps 729 mmHg 54%
    03:00 +8°C° 0 mm 0 mps 729 mmHg 55%
    04:00 +8°C° 0 mm 0 mps 729 mmHg 57%
    05:00 +10°C° 0 mm 1 mps 729 mmHg 52%
    06:00 +11°C° 0 mm 1 mps 729 mmHg 47%
    07:00 +13°C° 0 mm 1 mps 730 mmHg 42%
    08:00 +14°C° 0 mm 1 mps 730 mmHg 40%
    09:00 +15°C° 0 mm 1 mps 730 mmHg 38%
    10:00 +16°C° 0 mm 2 mps 730 mmHg 35%
    11:00 +16°C° 0 mm 2 mps 729 mmHg 35%
    12:00 +17°C° 0 mm 2 mps 729 mmHg 34%
    13:00 +18°C° 0 mm 2 mps 729 mmHg 33%
    14:00 +18°C° 0 mm 2 mps 728 mmHg 33%
    15:00 +18°C° 0 mm 2 mps 728 mmHg 33%
    16:00 +18°C° 0 mm 2 mps 728 mmHg 33%
    17:00 +17°C° 0 mm 2 mps 728 mmHg 38%
    18:00 +16°C° 0 mm 2 mps 728 mmHg 42%
    19:00 +15°C° 0 mm 1 mps 728 mmHg 46%
    20:00 +15°C° 0 mm 1 mps 728 mmHg 47%
    21:00 +14°C° 0 mm 1 mps 728 mmHg 48%
    22:00 +14°C° 0 mm 1 mps 728 mmHg 49%
    23:00 +14°C° 0 mm 2 mps 728 mmHg 49%

    27 April, Saturday

    Time Temperature Precipitation Wind Pressure Humidity
    00:00 +13°C° 0 mm 2 mps 728 mmHg 50%
    01:00 +13°C° 0 mm 2 mps 728 mmHg 50%
    02:00 +13°C° 0 mm 1 mps 728 mmHg 51%
    03:00 +13°C° 0 mm 1 mps 728 mmHg 52%
    04:00 +12°C° 0 mm 1 mps 728 mmHg 52%
    05:00 +13°C° 0 mm 1 mps 728 mmHg 49%
    06:00 +14°C° 0 mm 1 mps 728 mmHg 46%
    07:00 +15°C° 0 mm 1 mps 729 mmHg 43%
    08:00 +16°C° 0 mm 1 mps 729 mmHg 40%
    09:00 +18°C° 0 mm 1 mps 729 mmHg 37%
    10:00 +19°C° 0 mm 1 mps 729 mmHg 34%
    11:00 +20°C° 0 mm 1 mps 729 mmHg 32%
    12:00 +20°C° 0 mm 1 mps 728 mmHg 31%
    13:00 +20°C° 0 mm 2 mps 728 mmHg 29%
    14:00 +20°C° 0 mm 2 mps 728 mmHg 29%
    15:00 +20°C° 0 mm 2 mps 728 mmHg 29%
    16:00 +20°C° 0 mm 2 mps 728 mmHg 29%
    17:00 +19°C° 0 mm 2 mps 728 mmHg 34%
    18:00 +18°C° 0 mm 3 mps 728 mmHg 39%
    19:00 +17°C° 0 mm 3 mps 728 mmHg 44%
    20:00 +16°C° 0 mm 2 mps 728 mmHg 46%
    21:00 +16°C° 0 mm 2 mps 728 mmHg 48%
    22:00 +15°C° 0 mm 2 mps 728 mmHg 50%
    23:00 +15°C° 0 mm 2 mps 727 mmHg 49%

    28 April, Sunday

    Time Temperature Precipitation Wind Pressure Humidity
    00:00 +14°C° 0 mm 2 mps 727 mmHg 49%
    01:00 +14°C° 0 mm 2 mps 726 mmHg 48%
    02:00 +13°C° 0 mm 2 mps 726 mmHg 48%
    03:00 +13°C° 0 mm 2 mps 726 mmHg 48%
    04:00 +13°C° 0 mm 2 mps 726 mmHg 48%
    05:00 +14°C° 0 mm 2 mps 727 mmHg 47%
    06:00 +15°C° 0 mm 2 mps 727 mmHg 45%
    07:00 +17°C° 0 mm 2 mps 727 mmHg 44%
    08:00 +18°C° 0 mm 3 mps 727 mmHg 40%
    09:00 +19°C° 0 mm 3 mps 727 mmHg 37%
    10:00 +21°C° 0 mm 4 mps 727 mmHg 34%
    11:00 +21°C° 0 mm 3 mps 727 mmHg 33%
    12:00 +23°C° 0 mm 2 mps 726 mmHg 31%
    13:00 +23°C° 0 mm 2 mps 726 mmHg 30%
    14:00 +23°C° 0 mm 2 mps 725 mmHg 31%
    15:00 +23°C° 0 mm 2 mps 725 mmHg 32%
    16:00 +23°C° 0 mm 1 mps 725 mmHg 33%
    17:00 +21°C° 0 mm 2 mps 725 mmHg 37%
    18:00 +20°C° 0 mm 3 mps 725 mmHg 42%
    19:00 +18°C° 0 mm 3 mps 725 mmHg 47%
    20:00 +18°C° 0 mm 3 mps 725 mmHg 48%
    21:00 +17°C° 0 mm 3 mps 725 mmHg 49%
    22:00 +16°C° 0 mm 3 mps 725 mmHg 50%
    23:00 +16°C° 0 mm 3 mps 725 mmHg 51%
    Show more